This is the latest recevied weather packets stored in our database for station/object K0WXC-1. If no packets are shown the sender has not sent any weather packets the latest 10 day(s).
| Time | Temp. | Humidity | Pressure | Rain* | Wind** | Luminosity | Snow |
|---|---|---|---|---|---|---|---|
| 1777488988 | 12.78° C | 51% | 1006.5 hPa | 0 mm | 2.24 m/s, 283° | - | - |
| 1777488928 | 12.78° C | 50% | 1006.4 hPa | 0 mm | 3.13 m/s, 18° | - | - |
| 1777488868 | 12.78° C | 50% | 1006.4 hPa | 0 mm | 3.13 m/s, 18° | - | - |
| 1777488808 | 12.78° C | 50% | 1006.4 hPa | 0 mm | 3.13 m/s, 18° | - | - |
| 1777488748 | 12.78° C | 50% | 1006.4 hPa | 0 mm | 3.13 m/s, 18° | - | - |
| 1777488688 | 12.78° C | 50% | 1006.4 hPa | 0 mm | 3.13 m/s, 18° | - | - |
| 1777488628 | 13.33° C | 48% | 1006.4 hPa | 0 mm | 2.68 m/s, 353° | - | - |
| 1777488568 | 13.33° C | 48% | 1006.4 hPa | 0 mm | 2.68 m/s, 353° | - | - |
| 1777488508 | 13.33° C | 48% | 1006.4 hPa | 0 mm | 2.68 m/s, 353° | - | - |
| 1777488448 | 13.33° C | 48% | 1006.4 hPa | 0 mm | 2.68 m/s, 353° | - | - |
| 1777488388 | 13.33° C | 48% | 1006.4 hPa | 0 mm | 2.68 m/s, 353° | - | - |
| 1777488328 | 13.33° C | 48% | 1006.3 hPa | 0 mm | 3.58 m/s, 289° | - | - |
| 1777488268 | 13.33° C | 48% | 1006.3 hPa | 0 mm | 3.58 m/s, 289° | - | - |
| 1777488208 | 13.33° C | 48% | 1006.3 hPa | 0 mm | 3.58 m/s, 289° | - | - |
| 1777488148 | 13.33° C | 48% | 1006.3 hPa | 0 mm | 3.58 m/s, 289° | - | - |
| 1777488088 | 13.33° C | 48% | 1006.3 hPa | 0 mm | 3.58 m/s, 289° | - | - |
| 1777488028 | 12.78° C | 52% | 1006.3 hPa | 0 mm | 1.34 m/s, 326° | - | - |
| 1777487968 | 12.78° C | 52% | 1006.3 hPa | 0 mm | 1.34 m/s, 326° | - | - |
| 1777487908 | 12.78° C | 52% | 1006.3 hPa | 0 mm | 1.34 m/s, 326° | - | - |
| 1777487848 | 12.78° C | 52% | 1006.3 hPa | 0 mm | 1.34 m/s, 326° | - | - |
| 1777487788 | 12.78° C | 52% | 1006.3 hPa | 0 mm | 1.34 m/s, 326° | - | - |
| 1777487728 | 12.78° C | 48% | 1006.2 hPa | 0 mm | 3.58 m/s, 327° | - | - |
| 1777487668 | 12.78° C | 48% | 1006.2 hPa | 0 mm | 3.58 m/s, 327° | - | - |
| 1777487608 | 12.78° C | 48% | 1006.2 hPa | 0 mm | 3.58 m/s, 327° | - | - |
| 1777487548 | 12.78° C | 48% | 1006.2 hPa | 0 mm | 3.58 m/s, 327° | - | - |
* Rain latest hour (hover to see other rain measurements)
** Current wind speed in m/s (hover to see current wind gust speed)